Time,TemperatureF,DewpointF,PressureIn,WindDirection,WindDirectionDegrees,WindSpeedMPH,WindSpeedGustMPH,Humidity,HourlyPrecipIn,Conditions,Clouds,dailyrainin,SoftwareType,DateUTC
2015-07-31 00:01:00,64.4,62.9,29.97,NNE,12,0.0,0.0,95,0.00,,CLR,0.01,VWS V14.01,2015-07-31 04:01:00,
2015-07-31 00:06:00,64.2,62.7,29.97,NNE,12,0.0,0.0,95,0.00,,CLR,0.00,VWS V14.01,2015-07-31 04:06:00,
2015-07-31 00:11:00,64.1,62.6,29.97,NNE,12,0.0,0.0,95,0.00,,CLR,0.00,VWS V14.01,2015-07-31 04:11:00,
2015-07-31 00:16:00,63.9,62.4,29.97,NNE,12,0.0,0.0,95,0.00,,CLR,0.00,VWS V14.01,2015-07-31 04:16:00,
2015-07-31 00:21:00,63.8,62.3,29.97,NNE,12,0.0,0.0,95,0.00,,CLR,0.00,VWS V14.01,2015-07-31 04:21:00,
2015-07-31 00:26:00,63.7,62.2,29.97,NNE,12,0.0,0.0,95,0.00,,CLR,0.00,VWS V14.01,2015-07-31 04:26:00,
2015-07-31 00:31:00,63.6,62.4,29.97,NNE,12,0.0,0.0,96,0.00,,CLR,0.00,VWS V14.01,2015-07-31 04:31:00,
2015-07-31 00:36:00,63.7,62.5,29.98,NNE,12,0.0,0.0,96,0.00,,CLR,0.00,VWS V14.01,2015-07-31 04:36:00,
2015-07-31 00:41:00,63.6,62.4,29.98,NNE,12,0.0,0.0,96,0.00,,CLR,0.00,VWS V14.01,2015-07-31 04:41:00,
2015-07-31 00:46:00,63.5,62.3,29.98,NNE,12,0.0,0.0,96,0.00,,CLR,0.00,VWS V14.01,2015-07-31 04:46:00,
2015-07-31 00:51:00,63.5,62.3,29.98,NNE,12,0.0,0.0,96,0.00,,CLR,0.00,VWS V14.01,2015-07-31 04:51:00,
2015-07-31 00:57:00,63.6,62.4,29.98,NNE,12,0.0,0.0,96,0.00,,CLR,0.00,VWS V14.01,2015-07-31 04:57:00,
2015-07-31 01:02:00,63.6,62.4,29.98,NNE,12,0.0,0.0,96,0.00,,CLR,0.00,VWS V14.01,2015-07-31 05:02:00,
2015-07-31 01:07:00,63.6,62.4,29.97,NNE,12,0.0,0.0,96,0.00,,CLR,0.00,VWS V14.01,2015-07-31 05:07:00,
2015-07-31 01:12:00,63.6,62.4,29.98,NNE,12,0.0,0.0,96,0.00,,CLR,0.00,VWS V14.01,2015-07-31 05:12:00,
2015-07-31 01:17:00,63.7,62.8,29.97,NNE,12,0.0,0.0,97,0.00,,CLR,0.00,VWS V14.01,2015-07-31 05:17:00,
2015-07-31 01:22:00,63.7,62.8,29.97,NNE,12,0.0,0.0,97,0.00,,CLR,0.00,VWS V14.01,2015-07-31 05:22:00,
2015-07-31 01:27:00,63.7,62.8,29.97,NNE,12,0.0,0.0,97,0.00,,CLR,0.00,VWS V14.01,2015-07-31 05:27:00,
2015-07-31 01:32:00,63.6,62.4,29.97,NNE,12,0.0,0.0,96,0.00,,CLR,0.00,VWS V14.01,2015-07-31 05:32:00,
2015-07-31 01:37:00,63.5,62.3,29.97,NNE,12,0.0,0.0,96,0.00,,CLR,0.00,VWS V14.01,2015-07-31 05:37:00,
2015-07-31 01:42:00,63.4,62.2,29.97,NNE,12,0.0,0.0,96,0.00,,CLR,0.00,VWS V14.01,2015-07-31 05:42:00,
2015-07-31 01:47:00,63.3,62.1,29.97,NNE,12,0.0,0.0,96,0.00,,CLR,0.00,VWS V14.01,2015-07-31 05:47:00,
2015-07-31 01:53:00,63.3,62.1,29.97,NNE,12,0.0,0.0,96,0.00,,CLR,0.00,VWS V14.01,2015-07-31 05:53:00,
2015-07-31 01:58:00,63.3,62.4,29.97,NNE,12,0.0,0.0,97,0.00,,CLR,0.00,VWS V14.01,2015-07-31 05:58:00,
2015-07-31 02:03:00,63.4,62.5,29.97,NNE,12,0.0,0.0,97,0.00,,CLR,0.00,VWS V14.01,2015-07-31 06:03:00,
2015-07-31 02:08:00,63.5,62.6,29.96,NNE,12,0.0,0.0,97,0.00,,CLR,0.00,VWS V14.01,2015-07-31 06:08:00,
2015-07-31 02:13:00,63.4,62.5,29.96,NNE,12,0.0,0.0,97,0.00,,CLR,0.00,VWS V14.01,2015-07-31 06:13:00,
2015-07-31 02:18:00,63.4,62.5,29.97,NNE,12,0.0,0.0,97,0.00,,CLR,0.00,VWS V14.01,2015-07-31 06:18:00,
2015-07-31 02:23:00,63.4,62.2,29.97,NNE,12,0.0,0.0,96,0.00,,CLR,0.00,VWS V14.01,2015-07-31 06:23:00,
2015-07-31 02:28:00,63.4,62.2,29.96,NNE,12,0.0,0.0,96,0.00,,CLR,0.00,VWS V14.01,2015-07-31 06:28:00,
2015-07-31 02:33:00,63.4,62.5,29.96,NNE,12,0.0,0.0,97,0.00,,CLR,0.00,VWS V14.01,2015-07-31 06:33:00,
2015-07-31 02:38:00,63.5,62.6,29.97,NNE,12,0.0,0.0,97,0.00,,CLR,0.00,VWS V14.01,2015-07-31 06:38:00,
2015-07-31 02:44:00,63.5,62.6,29.97,NNE,12,0.0,0.0,97,0.00,,CLR,0.00,VWS V14.01,2015-07-31 06:44:00,
2015-07-31 02:54:00,63.5,62.6,29.97,NNE,12,0.0,0.0,97,0.00,,CLR,0.00,VWS V14.01,2015-07-31 06:54:00,
2015-07-31 02:59:00,63.5,62.6,29.97,NNE,12,0.0,0.0,97,0.00,,CLR,0.00,VWS V14.01,2015-07-31 06:59:00,
2015-07-31 03:04:00,63.5,62.6,29.97,NNE,12,0.0,0.0,97,0.00,,CLR,0.00,VWS V14.01,2015-07-31 07:04:00,
2015-07-31 03:09:00,63.4,62.5,29.97,NNE,12,0.0,0.0,97,0.00,,CLR,0.00,VWS V14.01,2015-07-31 07:09:00,
2015-07-31 03:14:00,63.4,62.5,29.97,NNE,12,0.0,0.0,97,0.00,,CLR,0.00,VWS V14.01,2015-07-31 07:14:00,
2015-07-31 03:19:00,63.5,62.6,29.97,NNE,12,0.0,0.0,97,0.00,,CLR,0.00,VWS V14.01,2015-07-31 07:19:00,
2015-07-31 03:24:00,63.4,62.5,29.96,NNE,12,0.0,0.0,97,0.00,,CLR,0.00,VWS V14.01,2015-07-31 07:24:00,
2015-07-31 03:29:00,63.4,62.5,29.96,NNE,12,0.0,0.0,97,0.00,,CLR,0.00,VWS V14.01,2015-07-31 07:29:00,
2015-07-31 03:34:00,63.4,62.5,29.96,NNE,12,0.0,0.0,97,0.00,,CLR,0.00,VWS V14.01,2015-07-31 07:34:00,
2015-07-31 03:39:00,63.2,62.3,29.96,NNE,12,0.0,0.0,97,0.00,,CLR,0.00,VWS V14.01,2015-07-31 07:39:00,
2015-07-31 03:45:00,63.1,62.2,29.96,NNE,12,0.0,0.0,97,0.00,,CLR,0.00,VWS V14.01,2015-07-31 07:45:00,
2015-07-31 03:50:00,63.0,62.1,29.96,NNE,12,0.0,0.0,97,0.00,,CLR,0.00,VWS V14.01,2015-07-31 07:50:00,
2015-07-31 03:55:00,62.9,62.0,29.96,NNE,12,0.0,0.0,97,0.00,,CLR,0.00,VWS V14.01,2015-07-31 07:55:00,
2015-07-31 04:00:00,63.0,62.1,29.96,NNE,12,0.0,0.0,97,0.00,,CLR,0.00,VWS V14.01,2015-07-31 08:00:00,
2015-07-31 04:05:00,62.9,62.0,29.96,NNE,12,0.0,0.0,97,0.00,,CLR,0.00,VWS V14.01,2015-07-31 08:05:00,
2015-07-31 04:10:00,62.9,62.3,29.96,NNE,12,0.0,0.0,98,0.00,,CLR,0.00,VWS V14.01,2015-07-31 08:10:00,
2015-07-31 04:15:00,62.9,62.3,29.96,NNE,12,0.0,0.0,98,0.00,,CLR,0.00,VWS V14.01,2015-07-31 08:15:00,
2015-07-31 04:20:00,62.9,62.3,29.96,NNE,12,0.0,0.0,98,0.00,,CLR,0.00,VWS V14.01,2015-07-31 08:20:00,
2015-07-31 04:25:00,62.9,62.3,29.96,NNE,12,0.0,0.0,98,0.00,,CLR,0.00,VWS V14.01,2015-07-31 08:25:00,
2015-07-31 04:30:00,62.8,62.2,29.96,NNE,12,0.0,0.0,98,0.00,,CLR,0.00,VWS V14.01,2015-07-31 08:30:00,
2015-07-31 04:35:00,62.8,62.2,29.96,NNE,12,0.0,0.0,98,0.00,,CLR,0.00,VWS V14.01,2015-07-31 08:35:00,
2015-07-31 04:41:00,62.8,62.2,29.95,NNE,12,0.0,0.0,98,0.00,,CLR,0.00,VWS V14.01,2015-07-31 08:41:00,
2015-07-31 04:46:00,62.8,62.2,29.95,NNE,12,0.0,0.0,98,0.00,,CLR,0.00,VWS V14.01,2015-07-31 08:46:00,
2015-07-31 04:51:00,62.7,62.1,29.95,NNE,12,0.0,0.0,98,0.00,,CLR,0.00,VWS V14.01,2015-07-31 08:51:00,
2015-07-31 04:56:00,62.6,62.0,29.95,NNE,12,0.0,0.0,98,0.00,,CLR,0.00,VWS V14.01,2015-07-31 08:56:00,
2015-07-31 05:01:00,62.5,61.9,29.95,NNE,12,0.0,0.0,98,0.00,,CLR,0.00,VWS V14.01,2015-07-31 09:01:00,
2015-07-31 05:06:00,62.4,61.8,29.95,NNE,12,0.0,0.0,98,0.00,,CLR,0.00,VWS V14.01,2015-07-31 09:06:00,
2015-07-31 05:11:00,62.4,61.8,29.95,NNE,12,0.0,0.0,98,0.00,,CLR,0.00,VWS V14.01,2015-07-31 09:11:00,
2015-07-31 05:16:00,62.5,61.9,29.95,NNE,12,0.0,0.0,98,0.00,,CLR,0.00,VWS V14.01,2015-07-31 09:16:00,
2015-07-31 05:21:00,62.5,61.9,29.95,NNE,12,0.0,0.0,98,0.00,,CLR,0.00,VWS V14.01,2015-07-31 09:21:00,
2015-07-31 05:26:00,62.4,61.8,29.95,NNE,12,0.0,0.0,98,0.00,,CLR,0.00,VWS V14.01,2015-07-31 09:26:00,
2015-07-31 05:31:00,62.3,61.7,29.95,NNE,12,0.0,0.0,98,0.00,,CLR,0.00,VWS V14.01,2015-07-31 09:31:00,
2015-07-31 05:36:00,62.3,61.7,29.95,NNE,12,0.0,0.0,98,0.00,,CLR,0.00,VWS V14.01,2015-07-31 09:36:00,
2015-07-31 05:41:00,62.2,61.6,29.95,NNE,12,0.0,0.0,98,0.00,,CLR,0.00,VWS V14.01,2015-07-31 09:41:00,
2015-07-31 05:46:00,62.1,61.5,29.95,NNE,12,0.0,0.0,98,0.00,,CLR,0.00,VWS V14.01,2015-07-31 09:46:00,
2015-07-31 05:51:00,62.1,61.5,29.95,NNE,12,0.0,0.0,98,0.00,,CLR,0.00,VWS V14.01,2015-07-31 09:51:00,
2015-07-31 05:57:00,62.1,61.5,29.95,NNE,12,0.0,0.0,98,0.00,,CLR,0.00,VWS V14.01,2015-07-31 09:57:00,
2015-07-31 06:02:00,62.1,61.5,29.95,NNE,12,0.0,0.0,98,0.00,,CLR,0.00,VWS V14.01,2015-07-31 10:02:00,
2015-07-31 06:07:00,62.2,61.6,29.95,NNE,12,0.0,0.0,98,0.00,,CLR,0.00,VWS V14.01,2015-07-31 10:07:00,
2015-07-31 06:12:00,62.2,61.6,29.95,NNE,12,0.0,0.0,98,0.00,,CLR,0.00,VWS V14.01,2015-07-31 10:12:00,
2015-07-31 06:17:00,62.2,61.6,29.95,NNE,12,0.0,0.0,98,0.00,,CLR,0.00,VWS V14.01,2015-07-31 10:17:00,
2015-07-31 06:22:00,62.3,61.7,29.95,NNE,12,0.0,0.0,98,0.00,,CLR,0.00,VWS V14.01,2015-07-31 10:22:00,
2015-07-31 06:27:00,62.3,61.7,29.95,NNE,12,0.0,0.0,98,0.00,,CLR,0.00,VWS V14.01,2015-07-31 10:27:00,
2015-07-31 06:32:00,62.3,61.7,29.95,NNE,12,0.0,0.0,98,0.00,,CLR,0.00,VWS V14.01,2015-07-31 10:32:00,
2015-07-31 06:37:00,62.2,61.6,29.95,NNE,12,0.0,0.0,98,0.00,,CLR,0.00,VWS V14.01,2015-07-31 10:37:00,
2015-07-31 06:43:00,62.1,61.5,29.95,NNE,12,0.0,0.0,98,0.00,,CLR,0.00,VWS V14.01,2015-07-31 10:43:00,
2015-07-31 06:48:00,62.0,61.4,29.95,NNE,12,0.0,0.0,98,0.00,,CLR,0.00,VWS V14.01,2015-07-31 10:48:00,
2015-07-31 06:53:00,62.0,61.4,29.95,NNE,12,0.0,0.0,98,0.00,,CLR,0.00,VWS V14.01,2015-07-31 10:53:00,
2015-07-31 06:58:00,62.1,61.5,29.95,NNE,12,0.0,0.0,98,0.00,,CLR,0.00,VWS V14.01,2015-07-31 10:58:00,
2015-07-31 07:03:00,62.2,61.6,29.96,NNE,12,0.0,0.0,98,0.00,,CLR,0.00,VWS V14.01,2015-07-31 11:03:00,
2015-07-31 07:08:00,62.7,62.4,29.96,NNE,12,0.0,0.0,99,0.00,,CLR,0.00,VWS V14.01,2015-07-31 11:08:00,
2015-07-31 07:13:00,63.4,63.1,29.96,NNE,12,0.0,0.0,99,0.00,,CLR,0.00,VWS V14.01,2015-07-31 11:13:00,
2015-07-31 07:18:00,64.0,63.7,29.96,NNE,12,0.0,0.0,99,0.00,,CLR,0.00,VWS V14.01,2015-07-31 11:18:00,
2015-07-31 07:23:00,64.6,64.6,29.96,NNE,12,0.0,0.0,100,0.00,,CLR,0.00,VWS V14.01,2015-07-31 11:23:00,
2015-07-31 07:28:00,65.3,65.0,29.96,NNE,12,0.0,0.0,99,0.00,,CLR,0.00,VWS V14.01,2015-07-31 11:28:00,
2015-07-31 07:33:00,66.1,65.8,29.96,NNE,12,0.0,0.0,99,0.00,,CLR,0.00,VWS V14.01,2015-07-31 11:33:00,
2015-07-31 07:38:00,66.9,66.6,29.96,NNE,12,0.0,0.0,99,0.00,,CLR,0.00,VWS V14.01,2015-07-31 11:38:00,
2015-07-31 07:44:00,67.7,66.8,29.97,NNE,12,0.0,0.0,97,0.00,,CLR,0.00,VWS V14.01,2015-07-31 11:44:00,
2015-07-31 07:49:00,68.6,67.1,29.97,NNE,12,0.0,0.0,95,0.00,,CLR,0.00,VWS V14.01,2015-07-31 11:49:00,
2015-07-31 07:54:00,69.3,67.2,29.97,NNE,12,0.0,0.0,93,0.00,,CLR,0.00,VWS V14.01,2015-07-31 11:54:00,
2015-07-31 07:59:00,69.8,67.1,29.97,NNE,12,0.0,0.0,91,0.00,,CLR,0.00,VWS V14.01,2015-07-31 11:59:00,
2015-07-31 08:04:00,70.3,67.2,29.97,NNE,12,0.0,0.0,90,0.00,,CLR,0.00,VWS V14.01,2015-07-31 12:04:00,
2015-07-31 08:09:00,71.0,67.9,29.97,NNE,12,0.0,0.0,90,0.00,,CLR,0.00,VWS V14.01,2015-07-31 12:09:00,
2015-07-31 08:14:00,71.7,67.6,29.97,NNE,12,0.0,0.0,87,0.00,,CLR,0.00,VWS V14.01,2015-07-31 12:14:00,
2015-07-31 08:19:00,72.2,67.8,29.97,NNE,12,0.0,0.0,86,0.00,,CLR,0.00,VWS V14.01,2015-07-31 12:19:00,
2015-07-31 08:24:00,72.5,67.7,29.97,NNE,12,0.0,0.0,85,0.00,,CLR,0.00,VWS V14.01,2015-07-31 12:24:00,
2015-07-31 08:29:00,73.0,68.2,29.97,NNE,12,0.0,0.0,85,0.00,,CLR,0.00,VWS V14.01,2015-07-31 12:29:00,
2015-07-31 08:34:00,73.8,68.7,29.97,NNE,12,0.0,0.0,84,0.00,,CLR,0.00,VWS V14.01,2015-07-31 12:34:00,
2015-07-31 08:40:00,74.4,68.9,29.97,NNE,12,0.0,0.0,83,0.00,,CLR,0.00,VWS V14.01,2015-07-31 12:40:00,
2015-07-31 08:45:00,75.1,69.9,29.97,NNE,12,0.0,0.0,84,0.00,,CLR,0.00,VWS V14.01,2015-07-31 12:45:00,
2015-07-31 08:50:00,75.5,69.3,29.97,NNE,12,0.0,0.0,81,0.00,,CLR,0.00,VWS V14.01,2015-07-31 12:50:00,
2015-07-31 08:55:00,75.8,69.2,29.97,NNE,12,0.0,0.0,80,0.00,,CLR,0.00,VWS V14.01,2015-07-31 12:55:00,
2015-07-31 09:00:00,76.1,69.5,29.97,NNE,12,0.0,0.0,80,0.00,,CLR,0.00,VWS V14.01,2015-07-31 13:00:00,
2015-07-31 09:05:00,76.5,70.2,29.97,NNE,12,0.0,0.0,81,0.00,,CLR,0.00,VWS V14.01,2015-07-31 13:05:00,
2015-07-31 09:10:00,76.9,69.9,29.97,NNE,12,0.0,0.0,79,0.00,,CLR,0.00,VWS V14.01,2015-07-31 13:10:00,
2015-07-31 09:15:00,77.3,70.7,29.97,NNE,12,0.0,0.0,80,0.00,,CLR,0.00,VWS V14.01,2015-07-31 13:15:00,
2015-07-31 09:20:00,77.9,70.5,29.97,NNE,12,0.0,0.0,78,0.00,,CLR,0.00,VWS V14.01,2015-07-31 13:20:00,
2015-07-31 09:25:00,78.3,70.5,29.97,NNE,12,0.0,0.0,77,0.00,,CLR,0.00,VWS V14.01,2015-07-31 13:25:00,
2015-07-31 09:30:00,78.5,71.1,29.97,NNE,12,0.0,0.0,78,0.00,,CLR,0.00,VWS V14.01,2015-07-31 13:30:00,
2015-07-31 09:36:00,78.6,70.8,29.97,NNE,12,0.0,0.0,77,0.00,,CLR,0.00,VWS V14.01,2015-07-31 13:36:00,
2015-07-31 09:41:00,79.1,70.9,29.97,NNE,12,0.0,0.0,76,0.00,,CLR,0.00,VWS V14.01,2015-07-31 13:41:00,
2015-07-31 09:46:00,79.3,71.5,29.97,NNE,12,0.0,0.0,77,0.00,,CLR,0.00,VWS V14.01,2015-07-31 13:46:00,
2015-07-31 09:51:00,79.8,72.3,29.97,NNE,12,0.0,0.0,78,0.00,,CLR,0.00,VWS V14.01,2015-07-31 13:51:00,
2015-07-31 09:56:00,80.4,71.8,29.97,NNE,12,0.0,0.0,75,0.00,,CLR,0.00,VWS V14.01,2015-07-31 13:56:00,
2015-07-31 10:01:00,80.8,72.5,29.96,NNE,12,0.0,0.0,76,0.00,,CLR,0.00,VWS V14.01,2015-07-31 14:01:00,
2015-07-31 10:06:00,80.8,71.7,29.96,NNE,12,0.0,2.0,74,0.00,,CLR,0.00,VWS V14.01,2015-07-31 14:06:00,
2015-07-31 10:11:00,80.8,71.7,29.96,NNE,12,1.0,1.0,74,0.00,,CLR,0.00,VWS V14.01,2015-07-31 14:11:00,
2015-07-31 10:16:00,81.0,71.9,29.96,NNE,12,0.0,0.0,74,0.00,,CLR,0.00,VWS V14.01,2015-07-31 14:16:00,
2015-07-31 10:21:00,81.2,71.7,29.96,NNE,12,0.0,2.0,73,0.00,,CLR,0.00,VWS V14.01,2015-07-31 14:21:00,
2015-07-31 10:26:00,81.5,72.4,29.96,NNE,12,0.0,1.0,74,0.00,,CLR,0.00,VWS V14.01,2015-07-31 14:26:00,
2015-07-31 10:31:00,81.8,72.7,29.96,NNE,12,1.0,1.0,74,0.00,,CLR,0.00,VWS V14.01,2015-07-31 14:31:00,
2015-07-31 10:36:00,82.1,73.0,29.96,NNE,12,0.0,1.0,74,0.00,,CLR,0.00,VWS V14.01,2015-07-31 14:36:00,
2015-07-31 10:41:00,82.3,73.6,29.96,NNE,12,0.0,1.0,75,0.00,,CLR,0.00,VWS V14.01,2015-07-31 14:41:00,
2015-07-31 10:46:00,82.4,72.5,29.96,NNE,12,0.0,1.0,72,0.00,,CLR,0.00,VWS V14.01,2015-07-31 14:46:00,
2015-07-31 10:51:00,82.9,74.6,29.96,NNE,12,0.0,2.0,76,0.00,,CLR,0.00,VWS V14.01,2015-07-31 14:51:00,
2015-07-31 10:56:00,83.2,72.8,29.96,NNE,12,0.0,0.0,71,0.00,,CLR,0.00,VWS V14.01,2015-07-31 14:56:00,
2015-07-31 11:02:00,83.3,73.8,29.96,NNE,12,0.0,0.0,73,0.00,,CLR,0.00,VWS V14.01,2015-07-31 15:02:00,
2015-07-31 11:07:00,83.4,72.6,29.96,NNE,12,0.0,0.0,70,0.00,,CLR,0.00,VWS V14.01,2015-07-31 15:07:00,
2015-07-31 11:12:00,83.6,74.0,29.96,NNE,12,0.0,0.0,73,0.00,,CLR,0.00,VWS V14.01,2015-07-31 15:12:00,
2015-07-31 11:17:00,83.9,72.7,29.96,NNE,12,0.0,0.0,69,0.00,,CLR,0.00,VWS V14.01,2015-07-31 15:17:00,
2015-07-31 11:22:00,84.1,72.8,29.96,NNE,12,1.0,1.0,69,0.00,,CLR,0.00,VWS V14.01,2015-07-31 15:22:00,
2015-07-31 11:27:00,84.1,74.1,29.96,NNE,12,1.0,1.0,72,0.00,,CLR,0.00,VWS V14.01,2015-07-31 15:27:00,
2015-07-31 11:32:00,84.3,72.6,29.96,NNE,12,0.0,0.0,68,0.00,,CLR,0.00,VWS V14.01,2015-07-31 15:32:00,
2015-07-31 11:37:00,84.5,74.1,29.96,NNE,12,0.0,0.0,71,0.00,,CLR,0.00,VWS V14.01,2015-07-31 15:37:00,
2015-07-31 11:42:00,84.4,73.1,29.96,NNE,12,1.0,1.0,69,0.00,,CLR,0.00,VWS V14.01,2015-07-31 15:42:00,
2015-07-31 11:47:00,84.5,72.8,29.96,NNE,12,1.0,1.0,68,0.00,,CLR,0.00,VWS V14.01,2015-07-31 15:47:00,
2015-07-31 11:52:00,84.5,73.7,29.96,NNE,12,0.0,1.0,70,0.00,,CLR,0.00,VWS V14.01,2015-07-31 15:52:00,
2015-07-31 11:57:00,84.3,72.6,29.96,NNE,12,0.0,0.0,68,0.00,,CLR,0.00,VWS V14.01,2015-07-31 15:57:00,
2015-07-31 12:03:00,84.2,72.9,29.96,NNE,12,1.0,1.0,69,0.00,,CLR,0.00,VWS V14.01,2015-07-31 16:03:00,
2015-07-31 12:08:00,84.3,71.3,29.96,NNE,12,1.0,1.0,65,0.00,,CLR,0.00,VWS V14.01,2015-07-31 16:08:00,
2015-07-31 12:13:00,84.7,74.3,29.96,NNE,12,0.0,0.0,71,0.00,,CLR,0.00,VWS V14.01,2015-07-31 16:13:00,
2015-07-31 12:18:00,84.9,73.6,29.95,NNE,12,0.0,0.0,69,0.00,,CLR,0.00,VWS V14.01,2015-07-31 16:18:00,
2015-07-31 12:23:00,85.0,72.4,29.96,NNE,12,2.0,2.0,66,0.00,,CLR,0.00,VWS V14.01,2015-07-31 16:23:00,
2015-07-31 12:28:00,85.2,69.3,29.95,NNE,12,0.0,3.0,59,0.00,,CLR,0.00,VWS V14.01,2015-07-31 16:28:00,
2015-07-31 12:33:00,85.4,71.8,29.95,NNE,12,0.0,2.0,64,0.00,,CLR,0.00,VWS V14.01,2015-07-31 16:33:00,
2015-07-31 12:38:00,85.3,69.4,29.95,NNE,12,0.0,1.0,59,0.00,,CLR,0.00,VWS V14.01,2015-07-31 16:38:00,
2015-07-31 12:43:00,85.4,73.6,29.95,NNE,12,0.0,0.0,68,0.00,,CLR,0.00,VWS V14.01,2015-07-31 16:43:00,
2015-07-31 12:48:00,85.4,71.4,29.94,NNE,12,0.0,0.0,63,0.00,,CLR,0.00,VWS V14.01,2015-07-31 16:48:00,
2015-07-31 12:53:00,85.7,72.6,29.94,NNE,12,2.0,3.0,65,0.00,,CLR,0.00,VWS V14.01,2015-07-31 16:53:00,
2015-07-31 12:59:00,85.6,70.6,29.94,NNE,12,0.0,1.0,61,0.00,,CLR,0.00,VWS V14.01,2015-07-31 16:59:00,
2015-07-31 13:04:00,85.7,72.1,29.94,NNE,12,0.0,1.0,64,0.00,,CLR,0.00,VWS V14.01,2015-07-31 17:04:00,
2015-07-31 13:09:00,85.8,69.3,29.94,NNE,12,1.0,1.0,58,0.00,,CLR,0.00,VWS V14.01,2015-07-31 17:09:00,
2015-07-31 13:14:00,86.0,70.5,29.94,NNE,12,0.0,1.0,60,0.00,,CLR,0.00,VWS V14.01,2015-07-31 17:14:00,
2015-07-31 13:19:00,85.9,67.9,29.94,NNE,12,0.0,5.0,55,0.00,,CLR,0.00,VWS V14.01,2015-07-31 17:19:00,
2015-07-31 13:24:00,85.7,70.2,29.94,NNE,12,0.0,3.0,60,0.00,,CLR,0.00,VWS V14.01,2015-07-31 17:24:00,
2015-07-31 13:29:00,85.7,71.2,29.94,NNE,12,1.0,7.0,62,0.00,,CLR,0.00,VWS V14.01,2015-07-31 17:29:00,
2015-07-31 13:34:00,85.7,71.7,29.94,NNE,12,0.0,1.0,63,0.00,,CLR,0.00,VWS V14.01,2015-07-31 17:34:00,
2015-07-31 13:39:00,85.6,69.1,29.94,NNE,12,5.0,5.0,58,0.00,,CLR,0.00,VWS V14.01,2015-07-31 17:39:00,
2015-07-31 13:44:00,84.7,68.8,29.93,North,5,0.0,7.0,59,0.00,,CLR,0.00,VWS V14.01,2015-07-31 17:44:00,
2015-07-31 13:49:00,84.4,70.0,29.93,North,5,1.0,3.0,62,0.00,,CLR,0.00,VWS V14.01,2015-07-31 17:49:00,
2015-07-31 13:55:00,84.6,69.7,29.93,North,5,0.0,3.0,61,0.00,,CLR,0.00,VWS V14.01,2015-07-31 17:55:00,
2015-07-31 14:00:00,84.8,66.8,29.93,North,5,0.0,3.0,55,0.00,,CLR,0.00,VWS V14.01,2015-07-31 18:00:00,
2015-07-31 14:05:00,85.2,68.3,29.93,North,5,2.0,2.0,57,0.00,,CLR,0.00,VWS V14.01,2015-07-31 18:05:00,
2015-07-31 14:10:00,85.4,69.4,29.93,North,5,1.0,2.0,59,0.00,,CLR,0.00,VWS V14.01,2015-07-31 18:10:00,
2015-07-31 14:15:00,85.6,68.6,29.93,North,5,7.0,7.0,57,0.00,,CLR,0.00,VWS V14.01,2015-07-31 18:15:00,